Theta_e
319 321 322 325 328 329 330 331 331 331 331 330 320 318 315 313 311 309 308 307 307 306 305 305 304 304 305 304 303 302 302 304 303 305 303 305 306 306 304 304 308 306 307
318 319 321 323 326 328 330 331 328 327 326 322 320 317 314 312 309 308 306 305 303 302 301 300 301 301 301 300 300 300 301 302 302 302 302 302 302 303 303 305 303 305 303
318 318 319 321 323 322 322 323 324 321 321 318 316 314 312 310 309 308 306 304 302 300 299 299 299 299 299 299 299 299 300 301 301 300 300 300 302 300 303 302 302 300 302
317 317 317 319 320 320 320 320 320 319 319 317 316 313 310 309 309 307 305 303 301 299 297 297 298 298 297 297 297 297 298 299 300 299 298 298 299 300 299 301 299 298 299
316 317 316 319 319 318 316 315 315 314 313 312 311 310 309 308 307 305 303 301 299 298 296 296 296 296 295 295 295 295 296 297 298 298 297 297 297 296 296 298 297 297 297
316 316 318 318 318 316 314 313 312 312 311 311 310 309 308 306 304 302 301 299 298 297 295 294 294 294 294 294 294 293 294 294 296 295 295 296 295 295 295 296 295 296 296
316 315 315 316 317 315 313 312 311 309 308 308 307 306 304 302 300 299 298 297 296 295 294 293 293 293 293 293 292 292 292 293 294 294 293 293 294 294 295 295 295 295 294
315 315 314 316 316 315 312 311 309 307 306 304 303 302 300 299 297 296 296 295 294 293 292 292 292 292 292 292 291 291 291 292 292 292 292 292 292 293 294 293 294 293 293
316 315 314 317 316 313 311 309 307 305 303 301 300 298 298 297 296 295 294 293 293 292 292 291 291 291 291 291 290 290 290 291 291 291 291 291 292 292 292 292 292 292 292
316 315 314 316 315 313 311 308 305 303 302 300 298 296 295 294 293 293 292 292 291 291 290 290 290 290 290 290 290 290 290 290 289 290 290 290 290 291 291 291 291 291 290
317 316 314 316 313 311 309 307 304 302 300 298 296 295 294 293 292 292 291 290 290 290 290 289 289 289 289 289 289 289 289 289 288 288 288 289 289 290 290 290 290 289 290
316 315 314 313 311 309 307 305 303 300 298 296 295 294 293 292 291 291 290 290 289 289 289 289 289 289 289 289 288 288 288 288 287 287 288 288 289 289 289 289 289 288 288
315 314 313 311 309 308 306 304 302 299 296 295 293 292 292 291 290 290 289 289 289 288 288 288 288 288 288 288 288 288 288 287 287 287 287 288 288 288 289 288 287 287 287
316 314 313 309 309 308 305 303 301 297 295 293 292 291 291 290 290 289 289 288 288 288 288 288 288 288 288 288 288 288 287 287 287 286 287 287 287 288 288 288 287 288 288
315 314 312 309 308 306 304 302 299 296 294 292 291 290 290 289 289 289 288 288 288 288 288 288 288 288 288 288 288 288 287 287 286 286 286 286 287 288 287 288 288 288 287
315 313 312 309 306 304 302 299 297 294 292 291 290 289 289 289 289 288 288 288 288 288 288 288 288 288 287 287 287 288 287 286 285 285 286 286 287 287 287 287 287 287 288
314 312 312 308 306 303 301 298 295 293 291 290 289 289 289 288 288 288 287 287 287 287 287 287 287 287 286 286 287 287 286 286 285 285 286 286 286 286 286 286 287 288 287
312 311 309 307 305 302 299 296 293 291 290 289 289 288 288 288 287 287 287 287 287 287 287 287 286 286 285 285 286 286 286 285 285 285 285 285 285 285 286 287 288 286 285
309 309 307 304 301 299 295 292 291 290 289 289 288 288 287 287 286 286 286 286 286 286 286 286 285 285 285 285 285 286 286 285 285 285 285 285 286 286 286 287 286 285 284
306 304 302 300 297 295 293 291 291 290 288 287 287 287 286 286 286 286 285 286 286 286 285 285 284 284 284 284 285 286 286 285 285 285 285 285 285 285 286 286 285 283 282
301 300 299 297 295 293 292 292 289 288 287 286 286 286 286 286 286 285 285 285 285 285 284 284 284 283 283 284 285 285 285 285 285 285 285 285 284 286 286 284 283 283 283
299 298 296 293 292 292 292 289 288 287 286 286 286 286 285 285 285 285 285 285 285 284 284 283 283 283 283 283 283 284 285 285 285 285 284 284 285 285 283 282 282 282 282
297 296 293 292 291 291 290 288 286 286 286 285 285 285 285 285 285 285 285 285 284 283 283 282 282 282 283 282 282 283 283 284 285 284 284 285 284 283 281 281 281 280 279
296 296 293 292 290 289 288 287 286 285 285 285 285 284 284 285 285 284 284 284 283 283 282 283 283 282 282 282 282 283 284 284 284 284 285 283 281 281 280 280 279 279 279
297 296 295 293 289 288 286 286 285 284 284 284 284 284 284 284 284 284 284 283 283 283 284 283 283 283 283 283 284 284 284 284 284 285 282 280 280 280 280 279 279 279 279
297 296 295 292 288 287 286 285 284 284 284 283 283 283 284 283 283 283 283 282 283 283 283 283 283 283 283 283 284 283 283 284 283 282 280 280 280 279 279 279 279 279 279
Wind_Speed
8 8 11 13 16 17 20 21 23 22 22 22 24 22 22 20 19 18 15 15 15 15 16 14 14 15 15 16 16 18 19 19 23 23 25 19 18 22 33 37 31 33 29
8 6 13 16 17 18 20 20 21 22 23 23 23 23 22 18 17 16 15 14 15 15 15 14 13 13 14 14 16 18 18 19 22 17 17 5 16 19 25 22 33 23 34
10 8 9 16 18 20 21 20 22 23 23 25 24 23 21 18 15 13 12 12 14 14 14 13 12 12 12 13 14 16 18 20 21 20 11 4 4 14 9 26 20 33 27
10 8 9 15 17 18 20 21 21 21 21 20 21 20 18 17 13 12 10 8 11 12 12 11 10 10 9 12 14 15 16 17 19 20 15 20 23 8 10 7 30 25 27
10 10 9 18 17 18 21 21 22 22 20 20 20 20 18 15 12 10 9 7 7 7 11 10 10 10 12 13 14 15 16 17 19 19 19 22 20 23 9 15 13 24 25
10 10 18 20 17 18 20 21 22 20 19 19 18 17 16 13 12 10 9 10 8 7 11 10 10 10 12 14 15 16 17 18 19 21 20 22 14 15 14 12 15 17 25
10 10 10 13 17 17 19 19 20 20 18 18 17 15 14 13 11 10 9 7 6 7 11 12 12 12 13 14 16 17 19 20 21 22 24 27 25 24 24 20 14 13 27
9 10 9 16 19 19 17 19 20 19 17 16 14 13 12 11 10 9 7 7 7 8 9 11 12 13 14 15 17 19 21 22 24 25 26 27 29 27 25 23 17 14 15
12 11 11 19 20 18 18 19 19 17 15 14 13 12 11 10 9 7 7 7 7 7 10 10 12 13 15 17 19 21 24 25 27 29 29 28 28 29 29 27 24 15 15
13 11 9 19 21 18 18 18 17 17 15 13 11 10 9 8 7 6 7 7 7 8 10 11 13 15 17 19 21 24 26 28 29 27 28 32 30 29 29 29 24 22 18
14 12 8 21 22 19 18 18 17 16 14 12 11 9 8 7 6 6 6 7 7 8 10 12 15 18 20 22 24 26 27 26 31 28 29 30 31 29 26 26 26 23 21
13 11 10 19 22 19 17 17 16 15 13 12 9 8 7 6 5 6 6 6 8 9 12 14 17 20 23 24 26 27 28 30 26 28 29 30 29 29 28 26 24 21 23
12 10 10 11 18 19 18 17 15 14 12 11 10 8 6 5 5 5 6 7 9 12 14 16 19 22 25 26 27 28 29 23 29 28 29 30 29 30 26 26 25 27 28
12 9 10 7 18 20 18 16 15 14 12 11 9 8 4 4 3 5 7 9 11 14 16 19 21 24 26 27 29 27 27 28 25 28 29 30 30 28 27 28 28 24 24
11 10 9 8 15 19 18 16 15 13 11 10 8 6 4 3 4 6 8 10 13 15 18 21 24 26 27 25 25 29 28 27 26 28 30 30 28 30 31 29 27 27 29
11 9 9 9 14 19 19 17 15 13 11 9 7 5 2 3 4 6 9 12 15 18 21 24 25 26 27 25 27 27 28 25 26 30 30 30 26 27 29 30 35 37 32
9 9 9 8 17 20 20 17 15 12 10 8 6 3 2 3 5 7 10 13 17 21 23 24 26 27 27 26 26 27 27 25 27 28 30 30 25 28 31 35 33 28 26
9 8 7 15 19 20 18 17 16 12 10 7 4 2 1 4 6 9 12 15 19 22 24 26 27 27 28 26 27 27 25 27 26 27 29 28 31 32 35 35 30 26 31
7 11 19 21 21 19 20 18 14 11 9 6 3 1 3 5 7 10 14 18 21 24 26 25 27 28 30 26 27 25 26 22 26 27 27 28 34 34 37 37 31 32 30
16 18 22 22 20 18 17 16 13 10 7 4 2 1 3 5 9 12 17 20 22 24 25 28 27 28 29 28 25 24 25 25 25 26 23 28 32 37 38 37 35 29 31
18 20 19 18 18 16 15 15 12 8 5 3 1 2 3 7 10 15 19 21 22 24 27 28 29 27 25 26 25 27 29 25 27 26 28 28 34 38 37 40 29 31 40
14 16 18 19 15 13 13 12 9 7 4 2 0 2 6 10 13 15 20 20 22 24 26 26 25 23 25 24 28 29 28 30 29 29 29 34 39 36 38 32 36 37 35
13 15 18 17 13 10 10 11 8 6 3 1 2 6 9 12 13 17 19 21 23 24 22 21 22 25 25 26 27 27 28 31 33 31 36 39 32 32 29 32 34 33 29
11 13 17 15 13 10 9 10 7 4 3 3 6 9 11 13 16 18 19 21 24 22 21 21 22 23 25 26 27 28 28 29 29 32 30 28 28 28 30 29 29 28 27
13 12 13 15 15 10 9 7 5 3 4 5 7 9 11 15 18 20 20 23 24 22 25 24 25 23 25 27 33 34 33 34 36 37 25 24 26 26 26 28 28 28 29
12 10 10 16 14 10 9 5 3 3 4 6 8 10 13 18 19 22 24 20 20 23 24 25 25 27 28 31 33 33 36 37 35 28 24 24 24 24 26 27 29 29 30
Wind_Direction
121 148 139 128 116 120 119 118 122 126 129 125 114 108 104 101 95 89 85 77 69 56 48 45 31 20 23 15 11 3 360 355 350 346 338 334 339 327 344 336 335 329 332
139 153 137 126 115 110 111 113 111 114 119 121 119 117 114 105 99 94 81 67 62 54 45 39 34 27 23 14 14 8 1 352 353 353 334 332 325 343 324 325 318 327 329
146 155 123 114 107 104 108 111 114 115 118 119 118 116 112 107 101 86 72 64 52 49 45 38 36 29 23 12 9 3 360 350 347 351 340 342 316 320 323 319 315 322 320
146 148 133 117 112 115 117 115 117 119 126 133 135 127 121 112 107 100 95 56 36 40 49 41 39 27 19 8 3 356 351 344 333 334 331 325 318 322 317 302 311 312 309
146 142 125 122 120 116 115 114 113 110 111 115 122 122 119 118 116 106 99 94 69 28 36 38 31 16 7 359 354 347 340 332 323 321 326 318 315 313 305 308 313 307 308
141 128 124 122 119 120 119 118 114 110 115 119 121 122 123 121 111 103 89 78 68 32 15 22 19 7 357 352 345 338 329 322 315 314 314 309 310 308 306 303 307 304 308
141 134 133 133 135 130 128 124 120 112 115 115 117 118 114 113 105 89 75 65 46 22 9 6 7 359 348 342 336 329 324 320 314 310 311 305 301 301 296 302 301 302 306
143 146 145 144 145 144 142 134 126 121 120 117 116 116 111 103 89 75 71 54 28 13 357 356 354 347 341 335 329 322 318 312 307 306 306 302 302 300 298 303 303 307 303
153 155 147 145 150 147 145 140 134 127 124 121 119 108 104 97 86 73 52 42 10 4 347 351 342 337 332 327 323 318 314 313 308 305 302 302 301 300 297 297 302 292 304
152 156 148 145 150 150 144 143 140 134 131 128 121 112 101 90 80 58 41 21 9 350 345 339 333 330 327 324 320 316 313 310 307 306 305 304 300 299 299 298 299 304 301
159 153 146 147 147 144 148 144 141 140 135 128 125 118 99 86 71 49 30 10 3 342 337 330 328 326 322 320 317 313 311 307 307 306 309 303 304 302 301 308 304 303 298
153 151 142 137 144 152 154 149 148 143 138 133 130 111 99 89 64 40 20 360 344 334 329 327 321 319 317 317 313 311 309 307 308 315 310 306 307 305 306 304 304 306 306
145 148 137 140 151 160 157 154 152 143 143 137 127 115 104 78 53 21 357 344 336 330 327 320 318 317 316 313 311 309 307 311 316 312 310 306 307 304 301 307 307 300 296
150 148 146 145 157 162 159 155 146 147 145 140 130 121 102 71 28 358 348 337 329 323 320 320 317 314 313 310 309 309 312 313 311 310 307 305 302 298 307 304 297 296 298
156 154 144 147 154 156 153 151 147 149 147 135 131 121 96 40 11 347 331 327 324 321 321 319 316 314 313 312 310 312 315 315 314 312 306 303 302 303 304 303 309 309 305
153 143 143 147 148 154 150 147 147 147 147 139 131 109 82 22 350 326 325 322 324 326 323 319 317 316 313 310 311 312 314 316 316 309 306 305 306 305 310 310 306 303 310
140 138 144 140 145 151 149 145 147 148 145 137 125 107 47 354 320 322 325 329 327 324 321 318 317 313 310 312 314 315 314 314 311 306 308 311 314 317 313 306 305 301 311
108 113 114 117 130 136 139 142 143 144 142 135 124 96 348 315 320 330 331 327 326 323 320 317 314 311 313 316 316 315 312 310 305 307 309 311 312 312 309 309 310 309 312
95 105 119 121 122 126 134 135 137 142 140 135 137 178 313 313 330 330 328 329 327 322 319 315 313 316 318 320 317 315 310 305 303 303 305 309 312 310 313 316 313 311 313
86 95 112 120 124 131 138 140 142 143 142 156 161 307 303 322 327 327 330 325 321 316 313 314 316 318 316 320 317 315 315 305 305 308 309 311 313 314 315 319 315 318 312
104 115 119 125 131 141 145 137 137 141 159 148 118 301 320 328 335 327 324 322 317 315 316 319 320 320 322 322 321 320 316 314 314 319 315 312 313 314 321 320 326 315 318
113 120 117 121 133 142 144 133 138 150 138 131 294 331 342 341 332 322 320 319 318 318 319 319 319 323 326 325 323 320 320 319 319 313 312 311 314 322 323 326 321 321 326
124 129 129 129 134 139 147 140 142 141 148 129 12 354 342 336 326 322 322 321 323 320 316 316 317 319 322 320 321 319 317 318 316 315 311 311 319 326 328 323 325 324 318
138 142 141 142 137 146 132 137 146 146 115 43 8 349 337 326 325 326 325 323 321 318 314 313 312 312 314 314 313 311 315 315 317 313 315 325 328 327 324 323 322 319 317
146 151 155 155 147 147 141 146 140 117 62 16 355 339 326 326 328 328 323 320 318 318 318 319 316 313 312 312 314 319 322 323 322 327 332 333 330 325 325 324 321 319 319
137 141 139 134 142 142 142 140 119 63 28 1 337 325 327 330 331 324 319 318 316 320 320 317 316 316 313 315 319 323 323 324 331 338 332 326 325 323 323 321 319 318 318